Dewpoint
35 42 46 50 50 50 52 52 55 57 57 57 56 56 57 55 56 57 56 55 54 52 48 46 42 42 47 48 46 49 51 54 56 57 55 54 55 55 56 54 57 57 57 59 60 59 59 60 60 62 61 61 63 65 65 65 64 64 63 64 60 60 59 58 54 54 52 52 56 56 57 56 56 58 58 57 54 54 55 54 54 56 56 57 58
37 46 49 50 47 53 55 53 55 55 56 56 55 56 57 57 56 57 55 54 53 53 52 53 50 45 46 43 47 44 46 48 50 54 55 56 56 57 57 57 57 57 57 58 59 60 60 59 61 60 60 62 63 64 66 66 65 64 63 62 61 59 58 56 54 54 50 51 53 54 54 56 57 57 55 54 52 54 56 55 57 57 55 57 58
43 44 47 46 49 51 53 54 54 54 56 56 55 57 58 56 56 56 54 53 53 55 54 52 54 55 51 50 46 46 52 54 53 54 55 52 56 55 56 57 57 56 57 57 58 59 59 59 60 61 61 63 63 64 64 67 66 66 66 63 60 61 60 59 57 55 49 51 55 52 51 50 55 54 56 53 52 54 54 53 55 53 52 53 55
42 43 46 46 48 50 52 53 54 55 56 56 57 57 57 55 57 56 55 54 54 54 53 57 56 57 57 55 54 51 49 54 57 55 54 53 51 52 53 54 54 56 55 54 56 57 59 59 60 59 60 62 61 63 64 64 65 66 66 65 63 62 61 59 56 55 53 50 50 50 51 51 48 52 54 55 55 55 55 55 54 52 52 53 51
43 44 46 48 47 49 51 52 54 56 55 54 57 56 56 56 57 56 54 54 53 53 57 56 57 58 57 57 56 54 53 51 51 51 51 51 51 52 52 53 53 53 54 55 54 55 58 58 58 59 59 60 61 61 61 61 61 64 65 65 63 63 61 61 56 54 53 54 52 50 50 51 49 48 54 54 54 52 53 54 54 53 52 52 48
44 44 45 47 48 50 50 52 54 54 54 55 58 57 57 55 57 56 53 52 52 55 56 55 53 51 48 46 45 46 46 47 46 49 50 50 49 52 52 52 52 53 53 53 54 55 57 58 59 60 60 60 60 61 62 65 64 66 64 65 64 64 63 62 58 56 56 54 52 52 53 48 48 47 51 50 56 56 55 53 53 54 54 51 51
45 46 45 46 48 49 50 52 53 52 54 57 58 57 57 57 57 55 53 51 53 54 55 54 54 51 53 51 50 50 47 49 51 51 50 50 51 52 51 53 52 52 53 53 53 53 55 57 58 58 58 60 61 61 61 63 64 65 66 66 65 65 64 62 62 57 58 54 50 52 53 52 53 53 50 51 49 53 53 54 54 53 54 51 49
46 45 47 47 48 49 49 52 53 52 56 57 57 57 57 57 57 55 53 51 53 54 54 54 53 52 53 53 50 49 49 50 51 51 51 51 50 51 51 51 52 52 52 52 52 53 53 54 56 57 56 56 57 59 59 61 63 64 65 65 65 65 64 62 62 63 56 56 53 52 54 54 53 53 52 50 48 50 51 53 55 56 56 55 53
44 45 47 48 49 49 49 51 53 55 57 56 56 57 57 57 56 55 53 52 53 54 54 54 53 52 51 50 50 50 51 50 49 50 49 50 51 50 51 50 50 52 51 52 53 53 53 53 55 55 55 56 55 56 60 61 62 63 65 66 64 64 64 64 63 63 62 61 56 55 54 54 52 53 51 51 48 48 46 50 53 55 56 54 55
42 43 46 48 50 52 53 55 56 57 57 55 56 57 57 57 55 54 53 51 52 53 53 54 54 52 51 52 52 51 51 50 50 50 50 50 49 50 50 50 50 51 51 52 53 52 53 54 53 54 55 55 55 56 57 60 62 62 63 64 64 63 64 64 63 63 64 65 59 58 56 56 55 53 52 52 51 52 46 44 52 52 52 52 57
34 39 46 50 53 54 55 54 54 55 57 55 55 56 56 56 55 54 53 50 52 52 52 54 54 52 51 52 53 52 53 52 51 51 49 50 49 49 49 49 49 49 50 51 52 52 53 53 53 54 54 55 54 55 57 58 59 62 62 63 64 63 63 64 62 62 64 65 63 61 58 57 56 55 54 53 54 52 49 49 49 48 51 54 56
32 35 41 48 51 52 53 52 53 54 55 54 55 56 55 55 55 53 53 52 51 52 52 53 52 52 52 52 52 52 52 52 52 51 50 50 49 48 48 48 49 49 49 48 50 51 52 52 54 54 52 54 54 55 55 56 58 59 61 63 63 64 64 63 63 62 62 63 64 64 62 60 58 57 55 54 54 53 52 50 47 47 47 48 51
33 34 39 45 49 51 51 51 52 53 54 54 54 55 55 55 54 53 53 52 50 51 51 52 52 52 51 51 51 51 51 51 50 50 50 49 48 49 48 47 47 48 49 49 49 51 51 52 52 52 52 53 53 53 54 55 57 58 59 61 62 63 63 63 63 62 62 63 63 64 64 62 60 58 58 57 56 55 53 51 46 44 46 47 44
30 32 35 41 45 47 49 51 51 53 54 54 54 54 54 54 54 53 52 51 49 49 51 51 52 51 51 50 50 49 50 50 50 48 50 49 48 48 48 47 47 49 48 49 49 50 50 51 52 53 53 53 52 53 54 55 56 54 56 58 61 62 63 63 62 62 63 63 63 63 63 63 63 62 59 59 56 56 55 52 51 46 47 42 43
26 31 32 37 43 47 49 49 49 51 53 54 54 54 54 53 53 52 51 50 48 49 50 51 50 51 50 50 50 49 48 47 47 48 49 49 49 49 48 48 47 47 46 48 48 49 50 50 52 51 52 52 53 53 53 54 55 55 54 56 57 60 61 61 62 62 62 62 62 62 61 63 64 63 63 61 57 57 56 54 53 50 47 48 46
29 31 33 38 41 44 47 50 51 51 53 54 54 54 54 53 53 52 51 50 47 48 48 49 49 50 50 49 50 49 47 47 47 47 48 48 49 48 48 49 48 47 48 48 48 48 49 48 49 50 51 52 52 53 53 53 54 54 54 54 55 56 59 61 61 60 61 60 62 63 62 62 63 64 64 64 62 58 58 57 54 51 48 47 47
29 30 29 35 36 43 45 48 51 53 54 55 54 54 54 53 52 51 50 50 47 47 48 48 49 49 50 49 49 49 48 48 47 48 49 49 49 48 47 48 49 49 48 48 48 48 47 48 48 49 51 52 52 52 52 52 53 54 53 54 54 55 57 57 59 60 63 63 63 63 62 62 62 64 63 63 64 63 60 57 54 52 51 46 45
27 28 29 30 33 36 41 48 50 53 53 54 53 54 53 53 52 51 50 49 46 46 47 48 49 49 50 50 49 49 47 47 47 47 48 47 47 47 47 47 47 48 48 48 47 47 46 47 47 48 49 50 51 51 52 52 53 52 53 53 53 54 55 56 57 60 62 61 62 63 61 61 62 63 63 64 64 64 63 61 57 53 53 49 47
27 28 28 31 36 38 42 46 47 51 52 52 51 52 51 52 52 51 50 48 46 46 46 47 48 48 49 49 49 48 48 47 47 47 47 47 46 46 46 46 47 47 47 47 45 45 45 45 46 47 47 48 50 51 51 52 53 52 52 52 53 54 53 54 56 57 59 61 62 60 62 62 61 63 63 63 63 63 64 65 63 57 54 54 50
28 27 27 28 30 31 32 45 46 49 50 50 50 51 50 51 51 51 50 47 47 47 47 47 48 48 48 48 48 45 45 46 46 47 46 45 44 45 44 45 45 45 45 46 44 43 44 45 45 45 46 48 48 50 50 50 51 52 52 52 52 53 52 52 53 55 55 58 60 60 61 61 61 62 62 62 63 64 64 65 64 61 54 54 54
30 29 28 29 31 34 41 48 41 43 46 49 49 50 49 49 50 49 49 48 47 47 46 47 48 47 48 49 48 47 47 46 46 46 46 45 45 45 44 43 41 42 43 44 44 42 41 43 44 44 44 45 46 48 49 50 50 51 51 51 51 51 51 51 51 52 54 56 56 57 61 61 62 62 61 61 61 63 64 64 64 64 58 54 53
32 31 31 30 32 36 45 41 39 40 42 46 47 48 48 49 47 48 47 45 45 45 45 46 46 48 48 48 48 47 46 46 46 46 45 44 44 43 43 41 43 41 41 42 41 42 42 43 43 43 44 44 45 45 47 48 49 50 51 51 51 51 52 51 51 50 51 53 56 56 57 61 59 60 62 60 59 61 63 62 64 64 61 55 55
31 32 32 32 39 43 41 42 41 44 44 45 46 46 46 48 47 47 47 46 44 44 43 45 46 47 48 47 46 46 45 45 46 45 45 44 43 43 40 42 41 41 41 42 42 43 42 42 41 43 43 43 44 44 46 46 47 48 48 50 51 51 51 52 52 51 49 50 53 55 56 57 58 58 61 62 61 61 62 62 62 62 61 57 54
30 34 43 44 43 43 38 37 38 40 45 45 45 44 45 46 46 44 46 45 44 43 42 43 45 46 46 45 45 44 45 45 45 45 45 45 43 42 40 40 41 41 40 41 42 42 42 42 42 42 42 42 43 44 45 45 46 46 48 49 50 50 50 51 51 51 50 50 52 53 55 56 61 62 60 60 60 61 62 61 61 61 62 57 56
37 40 41 42 41 38 34 33 35 35 36 44 43 43 44 45 45 44 45 45 43 42 41 39 41 45 45 44 45 44 44 45 45 44 45 43 43 42 40 38 40 41 41 42 42 42 42 41 42 41 42 42 43 43 43 44 45 46 47 48 49 49 50 50 51 51 51 52 51 52 53 55 55 59 60 60 61 62 60 61 61 60 61 60 59
40 41 42 43 39 34 36 39 33 33 32 40 43 42 43 44 44 46 44 46 44 42 41 41 41 42 41 43 44 44 44 44 44 43 43 42 41 41 40 41 41 42 42 42 42 41 41 40 40 40 41 41 41 42 42 42 43 44 46 47 48 49 50 50 50 51 51 52 53 52 52 53 55 56 60 61 60 61 60 62 61 60 61 59 57
37 40 39 40 42 41 39 39 37 37 38 37 38 39 40 43 45 44 44 44 43 43 42 42 41 40 39 41 42 42 42 43 43 43 42 40 40 41 41 41 41 41 41 40 40 40 41 40 40 40 40 40 41 41 42 43 43 43 44 45 47 48 49 50 51 50 50 52 52 52 52 53 54 55 57 61 63 61 61 61 61 63 61 60 60
38 40 39 39 38 40 41 40 40 37 36 35 37 37 38 42 43 43 42 44 44 43 41 40 40 41 41 41 42 42 42 42 42 40 39 40 40 41 40 40 40 40 40 39 39 39 40 39 40 40 40 40 40 40 40 41 42 43 44 44 45 47 48 49 51 51 50 51 51 52 53 52 53 54 56 59 61 61 62 62 63 62 61 59 58
35 37 37 38 37 38 39 39 39 38 38 39 36 37 40 41 41 41 42 43 42 41 39 38 39 40 41 41 41 41 41 41 39 39 38 39 39 40 40 39 39 40 40 39 39 39 39 39 39 39 39 39 40 40 40 41 41 42 43 44 45 45 47 48 50 50 51 50 51 52 52 53 53 52 50 54 56 57 62 61 63 63 63 61 59
32 33 33 36 35 35 34 39 40 35 34 34 35 34 36 40 41 40 40 40 39 40 37 37 37 39 40 38 38 39 39 39 39 38 37 38 39 39 39 38 38 38 38 39 38 39 38 39 38 38 39 40 40 40 40 40 40 41 43 43 44 45 46 47 48 50 50 50 50 52 53 50 49 49 49 50 51 51 53 59 63 64 62 61 61
30 32 32 32 32 31 31 32 37 37 36 33 36 34 35 38 38 38 36 36 33 37 36 37 37 38 38 37 37 37 38 37 37 36 38 38 37 38 38 38 38 38 39 39 39 38 38 38 38 38 38 39 40 39 39 38 38 40 41 43 44 44 46 46 47 49 50 50 51 50 52 52 51 49 51 48 49 49 50 51 52 55 57 62 61
30 31 30 30 28 29 31 33 36 36 36 36 36 34 35 36 36 33 31 31 34 36 36 37 37 37 36 35 36 36 36 37 36 35 36 36 37 37 37 37 38 39 39 39 38 38 38 38 38 38 38 38 39 39 37 38 38 38 40 42 42 43 45 46 46 47 49 50 50 51 52 53 53 53 52 56 52 48 48 48 49 50 52 52 54
30 30 29 29 28 32 38 40 35 32 29 32 35 33 35 34 35 33 30 32 34 36 35 37 36 34 34 36 35 36 35 35 35 36 36 36 36 36 37 37 37 39 39 38 37 38 38 38 37 37 37 37 38 37 37 37 38 38 38 40 41 41 42 44 46 47 48 50 50 51 52 53 53 49 51 53 58 58 49 46 47 48 49 49 48
31 30 30 32 34 35 38 41 41 38 33 34 35 32 35 36 33 31 32 32 32 34 37 35 34 33 33 35 35 34 34 34 36 36 35 34 35 35 37 37 37 38 37 37 37 37 37 37 37 36 37 37 37 37 37 37 37 37 37 38 40 41 42 42 43 45 49 51 51 51 51 52 53 53 53 54 54 57 59 56 56 58 59 54 48
33 33 33 37 40 42 42 43 41 38 40 38 34 35 37 33 34 31 32 34 32 33 35 36 35 32 34 35 35 33 33 35 35 34 34 33 34 36 36 36 36 36 36 36 36 36 36 36 36 36 36 37 37 37 37 37 37 37 37 37 40 40 41 42 43 44 45 48 51 51 52 52 52 53 54 53 55 54 57 58 57 59 60 59 59
33 36 40 41 40 41 42 42 42 38 35 32 34 36 34 31 31 32 32 33 34 34 33 33 32 31 33 33 34 33 34 33 32 32 33 33 34 35 35 35 36 35 36 36 35 35 36 35 35 36 36 36 36 36 36 36 37 37 37 40 40 40 40 41 42 44 45 46 49 52 51 51 52 53 49 46 50 54 55 58 57 58 59 60 59
38 39 41 42 42 39 41 41 39 35 31 33 34 34 33 32 30 30 31 32 34 32 29 31 31 31 34 34 33 33 33 31 30 32 32 33 34 35 35 35 35 35 35 34 35 35 35 35 36 36 36 36 36 36 36 36 36 37 37 39 40 40 40 41 42 44 45 46 47 51 53 51 52 52 49 45 47 49 53 56 57 57 56 53 49
37 38 37 39 41 39 38 39 38 38 34 33 34 33 32 31 30 30 29 31 31 32 30 28 28 29 33 34 34 32 31 30 30 32 33 34 35 36 35 35 34 34 34 34 34 34 35 35 35 35 36 36 37 37 36 36 36 37 38 39 40 40 41 41 42 43 45 46 47 47 52 53 53 53 46 46 45 52 56 56 56 55 52 50 47
36 37 37 37 41 40 37 35 38 37 35 36 34 33 30 30 31 31 31 30 31 30 29 27 28 30 32 33 33 32 31 30 30 32 34 35 36 36 35 34 34 34 34 34 34 34 34 35 35 36 37 37 37 38 37 36 36 37 38 40 40 41 41 42 43 44 45 47 47 47 48 50 51 51 43 45 44 51 56 56 55 53 51 50 48
33 35 37 37 37 36 38 39 37 37 37 36 33 31 31 31 31 32 32 31 32 31 27 26 28 32 34 34 34 34 32 29 31 33 34 35 36 36 35 34 34 33 33 33 33 33 33 34 35 36 37 37 38 39 40 38 37 37 38 40 40 41 42 43 44 45 46 47 47 48 50 45 45 43 42 42 43 47 55 55 54 52 51 50 48
31 35 36 30 33 34 34 37 36 36 36 36 33 33 32 31 32 33 33 33 33 30 28 28 29 30 32 32 32 33 32 32 32 33 34 36 36 36 35 34 33 33 33 32 32 33 33 34 35 36 36 37 39 40 42 38 38 38 38 39 42 43 43 44 45 45 46 46 47 48 53 47 44 41 42 41 43 45 46 54 53 52 51 48 45
33 37 33 34 33 39 38 36 33 35 34 35 34 33 31 31 32 33 33 33 31 28 28 28 29 29 30 31 32 34 34 34 33 33 33 35 36 36 34 33 32 32 32 31 32 32 33 33 34 36 37 38 39 40 42 41 39 38 38 38 42 44 45 45 46 46 46 47 48 50 51 47 42 40 40 41 41 43 43 52 52 45 39 38 45
33 35 33 35 34 35 35 37 32 32 32 32 33 32 31 32 32 33 34 31 30 29 28 29 29 29 31 32 33 35 35 33 33 33 32 35 36 35 34 33 32 31 31 31 31 32 33 33 34 35 37 38 38 39 39 41 41 40 39 39 39 42 43 47 48 48 48 48 51 52 53 41 40 39 39 40 41 41 42 50 38 37 37 37 39
31 31 32 34 34 33 35 37 30 31 32 32 33 31 30 30 32 34 32 31 30 29 28 29 30 30 31 30 30 31 33 33 31 32 32 35 36 35 33 32 31 30 29 29 29 31 31 31 32 33 35 38 39 40 39 38 40 41 41 40 39 40 43 48 50 51 49 49 51 53 48 39 39 38 38 39 39 40 45 36 36 36 36 38 42
35 32 34 34 32 36 37 36 32 31 31 31 32 31 30 31 35 32 29 29 30 30 32 30 28 27 29 28 30 31 32 31 33 32 33 35 35 34 33 31 31 29 29 28 28 29 30 31 32 32 33 34 37 40 41 40 39 40 40 40 39 40 41 43 49 51 51 51 47 42 38 38 38 37 37 37 38 38 35 35 35 35 38 41 41
34 35 36 34 34 36 36 37 33 30 31 32 32 32 30 34 32 30 27 28 29 30 29 28 25 25 26 25 28 29 29 30 32 31 34 35 35 34 32 31 30 29 29 29 29 29 30 30 31 31 32 34 36 38 40 42 41 40 39 39 39 39 41 42 45 45 40 38 38 37 37 37 37 38 42 43 41 39 35 35 35 37 42 43 41
32 35 35 37 37 36 36 37 36 32 31 31 33 31 31 32 30 29 28 29 28 28 28 27 27 26 27 27 29 28 28 30 31 32 34 34 35 34 33 31 30 30 29 29 29 29 30 30 31 31 32 33 35 37 39 41 43 44 43 41 41 41 38 38 40 41 39 39 38 39 39 38 39 38 39 37 36 35 37 38 40 42 41 41 41
35 36 37 36 35 37 37 37 37 35 31 31 31 29 29 30 30 28 28 29 29 25 26 26 27 27 26 25 26 28 28 27 29 32 34 34 35 34 34 32 31 31 31 30 30 30 30 31 31 32 33 34 35 37 37 37 39 42 43 43 43 43 43 42 41 41 41 39 37 36 37 38 38 38 38 37 38 38 38 38 41 40 39 39 38
33 36 37 35 35 34 37 37 37 36 34 31 31 31 28 33 31 29 30 29 27 29 28 27 26 26 26 26 27 27 27 28 30 32 34 35 34 34 34 34 33 33 32 31 31 31 31 32 32 33 32 32 35 34 36 35 35 35 37 41 41 41 42 41 39 37 39 39 38 38 37 37 37 35 35 36 37 38 36 38 37 38 38 38 37
33 35 35 36 38 39 39 37 37 36 34 31 32 31 32 29 28 27 29 28 28 27 28 26 25 25 25 25 28 26 26 26 29 32 33 34 34 35 36 34 33 34 34 33 33 32 32 33 33 34 34 32 32 34 34 34 34 35 35 36 38 38 37 37 36 36 37 36 35 35 35 34 34 34 33 33 34 34 34 34 34 34 36 38 36
33 33 35 36 38 38 40 38 35 34 32 30 30 29 31 29 28 27 28 28 27 25 24 23 24 26 24 27 26 26 26 26 28 30 33 34 33 33 34 34 34 34 34 33 33 33 33 33 33 33 35 34 33 33 34 34 34 35 35 35 35 35 35 35 35 36 35 34 34 34 33 33 33 34 32 32 32 32 33 32 32 32 33 33 32